User: anonymous   Login
Location: Newark
(34.0111°N, 88.4892°W)
Time: 09:07:18
(UTC+00:00)
Language:

DOVE 4 - Orbit

View from above orbital plane
View from above orbital plane
View from above satellite
View from above satellite

Ground track
Ground track

The orbit data is extracted from the following two-line orbital elements,

1 39430U 13066Q   20157.87515150 +.00000126 +00000-0 +32183-4 0  9992
2 39430 097.7897 097.1027 0149943 220.7249 138.2671 14.59398980348111
Epoch (UTC): 05 June 2020 21:00:13
Eccentricity: 0.0149943
inclination: 97.7897°
perigee height: 589 km
apogee height: 801 km
right ascension of ascending node: 97.1027°
argument of perigee: 220.7249°
revolutions per day: 14.59398980
mean anomaly at epoch: 138.2671°
orbit number at epoch: 34811

The dashed part of the orbit path shows where the satellite is in the earth's shadow,  

DLR